Weather History for Zapata, TX

Change the Weather History Date:

Monday, February 4, 2013

  Actual Average (KLRD) Record (KLRD)
Temperature  
Mean Temperature 72 °F 59 °F  
Max Temperature 86 °F 70 °F 98 °F (2008)
Min Temperature 58 °F 48 °F 24 °F (2011)
Degree Days  
Heating Degree Days 0 7  
Month to date heating degree days 31  
Since 1 July heating degree days 710  
Cooling Degree Days 7 1  
Month to date cooling degree days 4  
Year to date cooling degree days 32  
Growing Degree Days 22 (Base 50)    
Moisture  
Dew Point 50 °F    
Average Humidity 52    
Maximum Humidity 82    
Minimum Humidity 20    
Precipitation  
Precipitation 0.00 in 0.03 in 1.40 in (1919)
Month to date precipitation 0.13  
Year to date precipitation 1.03  
Sea Level Pressure  
Sea Level Pressure 29.87 in    
Wind  
Wind Speed 5 mph (ESE)    
Max Wind Speed 12 mph    
Max Gust Speed -    
Visibility 10 miles    
Events      
T = Trace of Precipitation, MM = Missing Value Source: NWS Daily Summary

Daily Weather History Graph

Daily Weather History Graph

Search for Another Location

Airport:

Trip Planner

Search our weather history database for the weather conditions in past years. The results will help you decide how hot, cold, wet, or windy it might be!

Date:

Astronomy

Feb. 04, 2013 Rise Set
Actual Time 7:20 AM CST 6:21 PM CST
Civil Twilight 6:56 AM CST 6:45 PM CST
Nautical Twilight 6:28 AM CST 7:13 PM CST
Astronomical Twilight 6:01 AM CST 7:40 PM CST
Moon 1:51 AM CST (2/4) 12:54 PM CST (2/4)
Length of Visible Light 11h 49m
Length of Day
11h 00m
Last Quarter, 37% of the Moon is Illuminated
Feb 4
Last Quarter
Feb 10
New
Feb 17
First Quarter
Feb 25
Full
Mar 4
Last Quarter

Hourly Weather History & Observations

Time (CST) Temp. Dew Point Humidity Pressure Visibility Wind Dir Wind Speed Gust Speed Precip Events Conditions
12:15 AM 63.9 °F 52.9 °F 67% 30.00 in 10.0 mi SE 8.1 mph - N/A   Scattered Clouds
12:35 AM 63.5 °F 52.9 °F 68% 29.99 in 10.0 mi SE 8.1 mph - N/A   Mostly Cloudy
12:55 AM 63.5 °F 53.1 °F 69% 29.98 in 10.0 mi SE 8.1 mph - N/A   Mostly Cloudy
1:15 AM 63.5 °F 53.1 °F 69% 29.97 in 10.0 mi SE 5.8 mph - N/A   Mostly Cloudy
1:35 AM 63.1 °F 53.1 °F 70% 29.96 in 10.0 mi SE 8.1 mph - N/A   Scattered Clouds
1:55 AM 63.0 °F 53.1 °F 70% 29.95 in 10.0 mi SE 9.2 mph - N/A   Mostly Cloudy
2:35 AM 62.1 °F 53.1 °F 72% 29.94 in 10.0 mi SE 4.6 mph - N/A   Scattered Clouds
2:55 AM 61.7 °F 53.2 °F 74% 29.94 in 10.0 mi Calm Calm - N/A   Mostly Cloudy
3:15 AM 61.7 °F 53.2 °F 74% 29.93 in 10.0 mi SE 4.6 mph - N/A   Overcast
4:55 AM 61.3 °F 53.6 °F 76% 29.92 in 10.0 mi Calm Calm - N/A   Mostly Cloudy
5:15 AM 61.2 °F 53.4 °F 76% 29.92 in 10.0 mi ENE 4.6 mph - N/A   Overcast
5:35 AM 61.3 °F 53.6 °F 76% 29.92 in 10.0 mi East 3.5 mph - N/A   Overcast
5:55 AM 60.6 °F 53.2 °F 77% 29.92 in 10.0 mi East 3.5 mph - N/A   Scattered Clouds
6:15 AM 59.9 °F 53.2 °F 79% 29.93 in 10.0 mi Calm Calm - N/A   Mostly Cloudy
6:35 AM 59.0 °F 52.9 °F 80% 29.92 in 10.0 mi ESE 3.5 mph - N/A   Scattered Clouds
6:55 AM 58.6 °F 53.1 °F 82% 29.92 in 10.0 mi ESE 3.5 mph - N/A   Clear
7:15 AM 59.0 °F 53.6 °F 82% 29.92 in 10.0 mi Calm Calm - N/A   Clear
7:35 AM 60.1 °F 54.5 °F 82% 29.90 in 10.0 mi ESE 4.6 mph - N/A   Clear
7:55 AM 61.0 °F 54.7 °F 80% 29.90 in 10.0 mi ESE 3.5 mph - N/A   Clear
8:15 AM 61.2 °F 55.0 °F 80% 29.90 in 10.0 mi SE 3.5 mph - N/A   Clear
8:35 AM 62.4 °F 55.8 °F 79% 29.90 in 10.0 mi SSE 3.5 mph - N/A   Clear
8:55 AM 65.1 °F 56.3 °F 73% 29.91 in 10.0 mi SSE 6.9 mph - N/A   Clear
9:15 AM 67.6 °F 56.5 °F 67% 29.91 in 10.0 mi SSE 6.9 mph - N/A   Clear
9:35 AM 70.2 °F 56.5 °F 62% 29.91 in 10.0 mi South 6.9 mph - N/A   Clear
9:55 AM 71.2 °F 55.8 °F 58% 29.92 in 10.0 mi South 8.1 mph - N/A   Clear
10:15 AM 72.0 °F 56.1 °F 57% 29.93 in 10.0 mi SSW 5.8 mph - N/A   Clear
10:35 AM 73.8 °F 55.6 °F 53% 29.92 in 10.0 mi South 11.5 mph - N/A   Clear
10:55 AM 73.2 °F 55.4 °F 54% 29.92 in 10.0 mi South 8.1 mph - N/A   Clear
11:15 AM 74.1 °F 55.4 °F 52% 29.91 in 10.0 mi South 9.2 mph - N/A   Clear
11:35 AM 74.8 °F 55.4 °F 51% 29.91 in 10.0 mi SSW 6.9 mph - N/A   Clear
11:55 AM 75.6 °F 55.6 °F 50% 29.90 in 10.0 mi SSW 3.5 mph - N/A   Clear
12:15 PM 76.1 °F 55.4 °F 49% 29.89 in 10.0 mi SE 4.6 mph - N/A   Clear
12:35 PM 77.0 °F 55.2 °F 47% 29.88 in 10.0 mi SSE 5.8 mph - N/A   Clear
12:55 PM 78.4 °F 53.6 °F 42% 29.87 in 10.0 mi Calm Calm - N/A   Clear
1:15 PM 79.9 °F 52.0 °F 38% 29.85 in 10.0 mi Calm Calm - N/A   Clear
1:35 PM 80.8 °F 50.5 °F 35% 29.83 in 10.0 mi NNW 3.5 mph - N/A   Clear
1:55 PM 82.0 °F 51.1 °F 34% 29.82 in 10.0 mi Calm Calm - N/A   Clear
2:15 PM 83.1 °F 49.8 °F 31% 29.81 in 10.0 mi Calm Calm - N/A   Clear
2:35 PM 83.7 °F 46.8 °F 27% 29.80 in 10.0 mi Calm Calm - N/A   Clear
2:55 PM 84.4 °F 46.8 °F 27% 29.79 in 10.0 mi Calm Calm - N/A   Clear
3:15 PM 84.9 °F 45.7 °F 25% 29.78 in 10.0 mi Calm Calm - N/A   Clear
3:35 PM 85.6 °F 45.0 °F 24% 29.77 in 10.0 mi West 6.9 mph - N/A   Clear
3:55 PM 86.0 °F 43.9 °F 23% 29.77 in 10.0 mi NE 4.6 mph - N/A   Clear
4:15 PM 85.3 °F 44.2 °F 24% 29.78 in 10.0 mi Calm Calm - N/A   Clear
4:35 PM 85.8 °F 42.3 °F 22% 29.77 in 10.0 mi Calm Calm - N/A   Clear
4:55 PM 86.0 °F 41.0 °F 20% 29.77 in 10.0 mi NE 6.9 mph - N/A   Clear
5:15 PM 85.3 °F 42.6 °F 22% 29.77 in 10.0 mi NE 6.9 mph - N/A   Clear
5:35 PM 85.1 °F 41.7 °F 22% 29.77 in 10.0 mi NNE 5.8 mph - N/A   Clear
5:55 PM 83.7 °F 42.3 °F 23% 29.78 in 10.0 mi North 6.9 mph - N/A   Clear
6:15 PM 81.7 °F 41.9 °F 24% 29.79 in 10.0 mi NNE 4.6 mph - N/A   Clear
6:35 PM 79.7 °F 42.4 °F 27% 29.79 in 10.0 mi NNE 4.6 mph - N/A   Clear
6:55 PM 77.9 °F 42.8 °F 29% 29.80 in 10.0 mi North 3.5 mph - N/A   Clear
7:15 PM 76.3 °F 42.8 °F 30% 29.80 in 10.0 mi North 3.5 mph - N/A   Clear
7:35 PM 75.0 °F 43.5 °F 32% 29.80 in 10.0 mi North 5.8 mph - N/A   Clear
8:15 PM 71.6 °F 44.8 °F 38% 29.83 in 10.0 mi Calm Calm - N/A   Clear
8:35 PM 71.8 °F 44.6 °F 38% 29.83 in 10.0 mi Calm Calm - N/A   Clear
9:15 PM 67.3 °F 45.0 °F 45% 29.84 in 10.0 mi Calm Calm - N/A   Clear
9:55 PM 67.3 °F 45.3 °F 45% 29.85 in 10.0 mi Calm Calm - N/A   Clear
10:15 PM 67.5 °F 45.5 °F 45% 29.85 in 10.0 mi Calm Calm - N/A   Clear
10:35 PM 66.9 °F 46.4 °F 48% 29.86 in 10.0 mi NE 3.5 mph - N/A   Clear
10:55 PM 66.7 °F 45.9 °F 47% 29.86 in 10.0 mi Calm Calm - N/A   Clear